GFSMA_250_rhum_135.txt.gz
RH
51 92 73 44 43 40 39 45 41 28 22 30 59 73 71 91 95 95 100 100 100 92 64 64 63 64 57 55 58 60 83 88 84 50 36 35 51 73 88 94 94 100 100
63 89 74 43 43 33 37 58 66 42 26 53 64 86 65 93 100 100 100 96 89 82 87 79 64 70 59 44 66 86 72 63 41 30 37 54 77 74 54 44 62 90 100
98 91 76 44 36 35 61 73 69 55 42 53 85 100 90 100 100 100 100 92 100 99 90 89 69 69 51 51 56 54 50 39 38 36 44 75 54 43 66 88 100 100 100
100 100 78 39 34 37 68 74 74 55 53 59 80 100 100 100 100 94 100 100 100 100 88 90 88 67 59 52 52 63 61 54 45 53 54 47 58 93 100 99 92 100 99
100 100 75 40 35 46 82 82 83 98 53 86 86 100 100 100 100 100 100 100 100 100 100 87 78 76 64 60 62 65 74 59 54 50 55 78 95 100 93 99 100 92 89
100 100 74 40 36 54 72 100 100 91 90 86 73 100 100 100 100 100 100 100 100 100 100 88 84 77 62 54 74 93 79 51 50 79 100 92 92 100 100 100 74 58 38
100 100 76 51 31 45 90 100 100 56 78 84 87 86 100 100 100 86 100 97 100 100 100 100 94 93 72 84 97 89 61 42 45 61 72 71 100 100 87 58 34 34 36
100 80 89 45 36 86 95 100 100 85 54 58 97 86 100 100 100 99 100 95 84 100 100 100 100 100 79 96 98 77 49 50 80 90 97 92 73 52 37 37 40 44 44
79 72 91 39 35 71 87 72 99 71 74 51 95 96 84 100 100 100 100 100 77 90 100 100 95 98 75 77 82 79 75 91 100 100 77 49 38 33 44 50 54 57 80
100 100 91 85 76 63 66 56 66 74 99 75 76 100 100 96 99 89 100 99 100 100 100 99 92 99 99 98 99 100 87 82 100 86 47 52 36 45 65 64 70 93 91
85 95 100 98 79 65 47 38 67 70 78 86 61 89 85 100 100 98 93 100 100 100 100 97 94 100 100 100 100 100 100 99 100 79 53 61 49 64 71 71 88 100 100
74 82 100 100 99 91 82 44 47 90 71 92 66 81 77 62 74 100 98 98 100 100 100 100 100 100 100 100 100 100 98 100 100 75 59 63 57 68 83 86 98 100 100
82 84 90 92 100 87 68 44 46 95 76 88 84 80 65 63 58 58 100 100 100 98 100 100 100 100 100 100 100 100 100 100 100 100 95 89 81 84 100 100 100 98 98
86 99 84 66 84 89 70 53 54 94 69 79 81 86 89 80 60 40 44 100 100 94 100 100 100 100 100 100 100 100 98 100 100 99 100 100 100 100 100 100 98 100 100
100 100 82 84 70 77 70 60 73 78 89 77 73 90 92 81 67 44 38 76 100 78 82 100 100 100 100 73 59 84 92 100 100 97 99 100 100 100 100 96 100 100 100
100 100 98 90 81 63 65 55 86 94 75 84 93 100 89 88 85 56 58 78 100 99 84 100 100 100 100 92 83 87 96 98 98 94 100 100 100 100 99 84 72 78 81
91 97 89 66 72 56 65 61 92 100 83 66 85 90 86 84 67 67 83 99 100 84 62 91 100 100 100 100 100 100 100 100 100 91 85 96 99 86 83 85 78 73 58
91 71 81 72 69 78 85 83 100 100 84 75 64 78 85 75 52 91 100 97 100 100 71 98 100 100 100 100 100 100 100 100 100 100 86 89 79 87 75 62 58 52 98
88 81 72 84 71 88 100 83 100 99 92 70 72 55 63 62 50 100 100 100 100 100 92 100 100 100 100 100 100 100 100 100 100 100 91 73 65 64 64 59 63 82 100
91 80 92 100 75 92 98 98 98 92 97 70 67 48 68 53 72 100 100 100 100 100 100 100 100 100 100 100 100 100 100 100 100 100 81 73 70 71 66 100 100 100 100
96 82 88 74 81 93 93 100 90 79 99 70 66 57 69 70 41 100 94 93 100 100 99 100 100 100 100 100 100 100 100 100 100 100 88 89 90 94 100 100 100 100 100
82 68 84 89 91 100 100 94 79 68 92 90 64 60 76 74 43 95 100 100 98 100 100 100 100 100 100 100 100 100 100 100 100 100 100 95 95 100 100 100 100 100 100
99 70 90 95 90 93 100 82 58 58 71 57 46 60 72 81 42 66 100 100 96 90 100 100 100 100 100 100 100 100 100 100 100 100 100 100 100 100 100 100 100 100 97
100 100 100 100 96 91 93 96 100 95 100 100 63 51 57 84 54 32 79 100 100 93 69 82 100 100 100 100 100 100 100 100 100 100 100 100 100 100 100 100 98 81 98
96 100 81 100 84 78 53 51 100 100 100 100 100 54 56 92 55 35 31 85 95 93 99 98 94 100 100 100 100 100 100 100 100 100 100 100 100 100 100 100 100 100 100
99 100 97 91 79 60 58 99 89 100 100 100 100 62 57 81 88 44 35 52 84 86 90 99 100 100 100 100 100 100 100 100 100 100 100 100 100 100 100 100 100 100 100

GFSMA_250_rhum_138.txt.gz
RH
92 100 98 83 73 50 57 56 32 46 66 49 34 24 40 79 64 100 100 100 100 100 100 80 59 50 55 56 50 48 57 59 67 76 80 93 85 50 43 50 61 96 62
92 100 98 97 72 47 60 52 31 64 70 56 41 37 66 87 100 100 98 100 96 100 100 100 86 77 68 67 78 60 63 68 78 96 83 89 36 44 66 58 57 52 59
81 100 100 100 88 64 67 43 32 67 68 76 52 46 78 95 87 88 58 66 89 87 73 84 93 80 81 84 58 68 76 67 83 68 49 32 40 55 49 58 65 70 71
58 100 100 100 97 80 66 42 37 66 64 80 65 48 79 97 100 85 74 94 98 97 100 100 100 94 76 75 74 68 58 50 47 51 43 40 55 45 68 90 98 89 84
50 91 100 100 100 93 60 37 39 57 68 100 67 58 66 92 100 96 94 100 100 100 100 100 90 93 83 68 78 73 65 62 62 55 48 51 47 69 88 84 93 98 84
85 100 100 100 100 98 61 34 49 77 93 100 88 64 61 83 100 97 75 100 100 100 99 100 100 93 86 86 69 63 67 70 62 57 51 78 83 90 94 84 100 92 54
80 79 100 100 94 97 61 32 58 100 91 100 100 49 54 70 86 96 70 100 97 100 98 100 100 100 89 96 67 76 90 75 60 60 75 84 100 80 72 92 89 42 40
100 78 74 95 89 91 51 40 72 100 100 100 100 70 52 61 79 100 80 94 93 99 96 85 100 100 100 100 77 93 91 70 50 56 61 92 94 77 60 69 40 42 50
99 99 100 92 82 87 73 54 78 94 100 100 100 77 72 50 90 96 93 87 90 92 96 80 97 100 100 100 100 91 82 60 58 82 98 100 94 48 38 39 46 55 56
88 88 100 100 100 96 84 69 90 88 84 72 75 84 92 64 63 81 100 100 100 89 79 97 100 100 100 100 95 88 75 72 76 90 100 100 94 56 33 45 62 70 68
100 78 94 100 100 100 80 66 78 78 86 61 82 90 88 79 64 60 85 94 100 100 88 100 100 100 100 100 99 75 79 91 100 100 92 99 81 76 47 48 72 76 77
78 85 95 100 100 79 82 87 70 84 80 63 100 100 77 77 67 80 74 78 90 100 84 96 100 100 100 100 100 100 100 100 100 99 90 100 99 75 80 63 99 95 100
100 100 94 100 94 62 74 80 63 61 61 70 77 63 79 88 82 78 96 67 100 98 85 79 100 100 100 100 100 100 100 100 100 100 100 100 99 87 99 75 84 96 100
100 100 80 100 76 79 94 80 70 64 80 65 66 63 67 63 94 85 81 61 64 97 98 90 98 100 100 100 100 100 100 90 100 100 100 100 87 96 100 100 100 100 96
92 92 81 89 78 93 82 76 81 85 88 60 53 60 74 60 68 91 85 68 68 51 52 87 87 100 100 100 100 100 100 100 100 100 100 96 96 100 100 100 100 98 95
81 99 100 100 100 98 80 88 75 78 82 58 55 53 84 75 63 91 99 94 76 64 56 48 82 100 100 99 100 100 100 98 94 96 99 98 98 100 99 95 86 85 100
100 100 100 100 100 100 79 97 87 78 66 50 52 66 100 81 84 94 100 100 98 75 77 70 95 100 100 100 94 95 100 100 100 100 100 100 100 100 100 98 97 83 87
100 100 100 100 100 100 100 87 86 76 68 60 63 98 100 79 78 82 100 96 93 84 69 95 100 100 100 100 96 96 100 100 100 100 100 100 100 93 70 76 75 64 60
100 100 100 100 100 100 95 98 77 73 79 88 95 93 97 82 74 66 80 92 84 69 73 100 74 91 92 100 100 92 98 100 100 100 100 100 100 80 82 78 75 68 58
100 100 100 100 100 100 100 82 71 85 88 97 81 85 93 79 65 66 84 90 78 59 85 100 100 100 100 100 100 98 95 100 100 100 100 100 100 96 100 95 85 76 82
100 100 100 100 100 100 100 79 74 88 85 100 90 94 92 83 58 65 71 72 67 73 100 100 100 100 100 100 100 100 100 100 100 100 100 100 92 84 97 83 75 87 100
100 100 90 99 100 100 100 99 96 97 78 93 88 80 82 66 59 63 56 68 60 81 100 100 100 100 100 100 100 100 100 100 100 100 100 100 98 83 100 100 98 100 100
100 100 100 100 100 100 100 100 87 82 77 79 85 67 89 77 61 55 54 62 64 61 100 98 100 100 100 100 100 100 100 100 100 100 100 100 100 100 100 100 100 100 100
100 99 100 100 85 100 94 84 71 64 77 76 78 87 100 72 72 66 52 54 67 56 96 97 100 100 100 100 100 100 100 100 100 100 100 100 100 100 100 100 100 100 100
100 96 90 74 96 100 75 67 58 82 56 91 100 100 100 100 100 68 61 56 67 58 55 100 96 100 100 100 100 100 100 100 100 100 100 100 100 100 100 91 99 100 100
98 100 100 100 81 68 81 71 68 68 67 100 100 100 94 100 100 50 71 55 58 67 34 54 99 100 100 100 100 100 100 100 100 100 100 100 100 100 100 100 100 100 100

GFSMA_250_rhum_141.txt.gz
RH
46 54 57 48 46 77 64 73 78 66 49 41 44 44 33 29 26 43 54 99 100 100 100 100 100 100 99 85 70 63 67 56 65 59 60 64 75 84 98 90 58 48 60
64 53 56 48 48 66 70 75 79 66 52 38 50 43 34 30 40 54 64 78 91 100 100 100 100 100 95 86 70 58 45 58 69 73 71 76 78 99 90 39 54 54 63
76 57 48 40 50 55 83 84 67 72 54 33 45 48 38 36 48 78 93 77 88 99 100 100 100 100 100 96 82 83 71 89 74 76 75 74 84 69 40 68 70 74 71
79 65 52 53 54 51 96 93 85 86 50 35 53 54 48 47 48 77 77 82 62 72 88 99 100 100 85 98 100 100 98 80 73 68 69 60 45 35 57 56 80 97 91
64 65 64 66 59 59 85 86 94 88 54 38 82 72 49 58 52 62 57 62 83 92 96 98 85 92 100 100 99 82 72 71 74 57 53 53 41 52 53 70 89 96 93
55 66 68 85 69 67 85 100 96 87 68 44 97 70 59 74 47 62 66 52 64 84 100 97 100 100 96 100 82 78 81 76 73 66 63 50 53 62 70 77 85 97 88
61 98 92 67 85 78 80 100 80 71 93 62 98 52 66 64 45 49 64 60 59 77 87 100 100 100 100 100 83 84 63 72 75 64 61 66 92 100 100 89 100 99 73
85 100 100 100 97 97 100 98 74 72 96 73 100 82 90 83 64 47 51 67 57 79 87 100 98 100 99 100 95 92 72 100 82 74 81 93 86 95 83 78 98 87 41
84 100 100 100 98 100 100 99 70 59 92 100 100 100 97 99 84 59 57 67 63 60 92 91 92 100 91 100 100 92 99 100 76 67 78 82 94 98 90 98 83 57 42
74 100 100 96 100 100 99 100 73 56 81 100 100 100 100 88 97 68 61 86 80 49 65 86 94 100 100 100 100 100 100 100 82 73 70 100 98 100 96 93 52 40 49
50 99 100 100 100 100 100 100 99 96 77 100 100 100 100 85 100 84 52 58 98 73 53 69 100 100 100 100 100 100 100 100 90 69 72 92 96 99 92 69 51 45 58
47 48 93 100 100 100 100 100 100 100 94 86 100 100 100 99 100 75 58 53 72 80 89 88 100 100 100 100 100 100 100 96 100 99 92 100 94 94 93 96 77 59 57
90 62 54 74 100 99 93 99 100 100 100 80 90 91 100 100 92 99 85 53 64 64 72 76 100 100 100 100 100 100 100 100 100 100 100 100 100 99 83 96 99 85 60
82 100 71 70 87 100 95 99 100 100 100 90 72 76 99 83 84 84 78 53 56 78 78 70 69 97 100 100 100 100 100 100 100 100 95 90 100 100 84 83 89 97 95
80 94 95 74 84 100 100 100 100 96 76 88 91 78 99 96 72 99 83 52 57 82 94 88 61 64 84 100 100 100 100 100 100 100 100 98 100 100 100 98 86 88 94
81 70 83 100 100 100 100 100 100 90 69 94 90 83 99 92 85 64 47 63 57 86 95 78 65 61 63 79 100 100 100 100 100 100 100 100 93 77 82 97 100 93 95
49 44 46 71 95 100 100 100 100 95 66 85 95 100 96 92 78 59 63 61 62 80 100 97 72 72 66 61 63 96 100 100 83 92 100 100 95 100 100 100 100 100 98
36 32 29 32 37 65 89 100 100 81 72 93 95 90 96 88 66 52 70 51 68 92 99 100 100 91 100 85 62 79 91 100 100 86 95 100 100 100 100 100 100 74 81
53 56 50 52 55 51 76 82 80 90 69 91 100 100 94 91 59 83 90 56 67 66 76 99 100 95 100 100 78 65 62 81 96 100 99 100 99 100 100 100 87 78 91
85 72 69 71 75 93 99 100 81 97 100 100 100 100 97 90 65 73 73 56 56 49 55 69 100 100 97 74 86 87 63 100 100 100 99 99 96 100 100 97 100 92 85
91 92 95 98 85 100 100 100 91 100 85 100 100 100 98 94 69 78 68 54 49 48 64 68 93 90 76 65 88 100 100 100 100 100 100 100 100 100 100 100 98 90 85
95 98 100 100 100 99 100 89 99 100 100 100 100 94 100 92 74 75 78 64 59 58 65 94 88 79 58 95 100 99 100 100 100 100 100 100 100 100 100 100 94 78 74
92 98 98 100 100 100 100 100 100 100 100 100 100 100 99 93 72 62 54 64 67 64 70 81 86 78 79 98 100 100 100 100 100 100 100 100 100 100 100 100 88 72 89
95 100 100 100 100 100 100 100 100 100 100 100 100 100 100 88 98 85 49 70 77 67 73 63 58 72 68 100 100 100 100 100 100 99 100 100 100 100 100 100 99 100 100
80 94 100 97 100 92 100 100 100 100 100 100 96 100 87 84 100 100 98 84 90 100 86 69 56 70 65 83 100 100 100 100 100 100 100 100 99 100 100 100 100 100 100
68 88 99 98 98 99 100 100 90 100 99 95 100 100 79 96 100 100 94 98 100 100 94 71 72 54 71 68 100 100 100 100 100 100 100 100 100 100 100 100 100 100 100

GFSMA_250_rhum_147.txt.gz
RH
58 64 66 65 65 66 56 63 69 67 62 48 45 51 55 62 70 43 28 28 25 65 100 100 100 100 100 100 100 100 100 100 100 100 100 87 100 100 84 76 92 76 66
51 53 56 67 68 61 62 74 76 79 78 67 53 51 62 72 84 47 34 34 27 77 100 100 100 100 100 94 100 100 100 100 100 100 100 99 81 79 62 59 69 62 84
68 58 61 51 52 58 80 94 93 96 94 79 62 53 60 72 96 61 46 39 27 39 100 100 100 100 100 100 88 100 100 100 100 92 72 60 64 68 59 72 79 83 93
95 82 65 82 88 76 70 77 80 99 100 89 86 69 77 70 94 76 57 41 30 36 51 98 100 100 100 100 99 86 94 97 94 99 100 97 96 91 89 100 98 92 83
89 89 85 68 64 70 77 74 59 62 83 100 96 96 89 93 90 94 73 47 28 30 39 47 59 72 99 100 100 100 86 95 96 100 100 100 100 90 98 98 98 87 61
80 64 59 61 73 76 74 67 59 59 71 84 97 96 100 86 100 97 77 49 42 27 32 42 62 81 66 80 90 100 96 98 100 100 96 87 77 68 82 80 85 68 41
88 68 62 51 52 50 56 61 75 68 66 72 88 89 100 85 100 100 93 61 45 41 31 34 39 48 61 78 98 90 91 89 100 100 77 60 67 76 80 65 63 45 58
70 69 55 51 44 44 37 37 50 64 66 62 82 72 100 100 100 100 98 74 65 50 46 33 36 40 58 83 86 90 100 89 94 97 73 71 78 86 84 70 52 57 64
61 48 44 36 34 37 33 25 29 38 59 68 85 77 93 100 100 100 100 95 65 58 57 44 31 36 49 62 73 85 91 100 99 100 88 88 89 82 88 80 86 98 100
61 50 46 31 30 30 32 24 22 34 69 96 100 92 96 100 100 100 100 88 65 79 72 65 42 33 44 53 71 75 79 100 100 100 90 100 100 100 100 100 100 100 100
58 46 40 36 30 59 44 21 21 33 84 96 100 100 100 100 100 100 100 83 74 88 100 97 61 33 32 51 54 67 83 100 100 88 100 100 100 100 100 100 100 100 100
35 27 31 45 32 42 60 35 23 47 98 74 100 100 100 100 100 100 100 82 91 99 96 100 92 43 27 38 51 71 66 91 88 73 98 100 100 100 100 100 100 100 94
70 70 77 63 57 50 74 99 100 86 89 90 98 96 87 100 100 100 100 100 100 100 100 100 91 58 35 33 54 56 69 91 100 78 66 100 100 100 100 97 100 100 100
81 84 91 100 99 81 100 100 100 100 82 100 92 100 69 75 100 100 100 100 100 100 100 96 84 94 41 36 40 56 62 92 100 92 72 87 100 100 100 100 100 100 100
83 78 83 95 100 89 100 100 100 100 88 100 100 91 100 99 100 100 100 90 83 69 99 100 79 93 55 42 37 44 73 72 100 100 89 86 91 100 100 100 100 100 100
85 84 80 85 91 99 91 96 100 99 95 98 100 92 100 97 100 100 100 100 89 87 88 85 95 97 78 64 48 42 61 72 88 100 100 84 99 100 100 100 100 100 100
100 88 71 81 97 73 92 99 100 99 86 100 100 100 100 100 100 100 100 82 83 98 100 70 81 100 93 80 60 41 44 68 78 85 100 100 92 100 100 100 100 100 100
100 83 51 72 90 90 100 100 100 100 99 99 100 100 100 100 100 100 96 69 100 100 100 90 81 98 91 79 64 60 53 43 82 94 92 100 100 98 100 87 77 100 100
100 97 74 74 87 98 94 100 100 100 84 86 100 100 100 100 100 100 100 100 100 100 100 100 83 100 86 82 66 62 59 55 76 100 98 93 99 100 100 100 92 73 81
97 100 73 71 83 100 100 100 100 100 97 99 100 99 100 100 100 100 100 100 100 100 100 98 91 100 100 92 76 65 62 56 72 86 95 86 74 71 72 69 76 86 68
78 94 82 60 60 76 100 100 100 77 79 82 80 94 100 100 100 100 100 100 100 100 100 100 96 100 100 100 93 65 58 46 49 52 69 97 82 75 60 64 64 72 97
81 72 87 60 70 85 100 100 100 100 94 62 56 55 98 100 100 100 100 100 100 100 100 100 100 100 94 78 79 75 58 58 44 40 49 87 96 77 64 66 81 98 100
72 60 84 88 81 78 86 81 98 100 90 86 80 63 88 100 100 100 100 100 100 77 100 100 100 100 88 100 98 67 70 64 66 55 57 69 100 93 77 74 80 100 100
75 93 96 99 86 73 70 83 72 44 41 46 55 73 74 64 99 100 100 100 100 93 100 100 83 100 87 66 64 70 74 70 58 57 73 74 100 98 80 69 97 100 100
100 100 84 65 50 65 84 82 63 45 49 57 81 69 71 59 51 75 84 100 100 90 72 100 100 82 85 72 64 77 80 62 71 72 76 86 100 100 88 98 100 100 100
99 100 100 83 73 48 52 54 54 50 43 55 59 86 81 60 42 37 67 100 100 100 77 73 100 100 96 93 76 83 76 68 86 76 67 86 90 93 92 100 99 96 98

GFSMA_250_rhum_153.txt.gz
RH
62 54 50 52 48 40 35 40 49 50 46 43 43 41 41 49 50 41 40 38 38 44 40 43 31 29 39 74 100 100 100 100 100 100 100 100 100 99 94 99 95 100 96
100 72 62 62 61 53 40 45 39 34 41 48 52 45 42 44 55 47 43 50 40 39 30 38 33 47 57 52 74 100 100 100 100 100 100 94 100 100 96 100 93 70 98
100 100 78 72 58 55 58 57 51 49 48 47 40 43 51 50 56 56 48 54 48 45 34 37 41 30 95 57 58 61 98 100 100 100 100 100 100 100 85 86 91 99 91
100 100 99 86 72 61 55 52 53 44 54 66 57 46 45 61 79 68 58 52 54 59 60 34 43 38 39 85 100 98 87 75 74 88 95 99 100 100 100 100 100 99 99
100 100 100 81 64 47 55 55 59 50 47 50 72 71 72 57 64 60 50 48 48 54 74 52 41 45 40 74 100 100 100 100 100 99 88 78 70 71 69 64 64 60 66
96 100 100 99 59 32 35 38 44 44 53 52 52 58 70 77 69 66 65 79 68 55 79 82 44 50 42 38 41 54 67 76 98 100 96 88 99 100 96 90 92 86 72
100 100 100 100 100 47 48 51 62 63 67 91 81 75 77 68 68 71 59 56 83 74 76 91 67 47 48 36 39 33 29 33 44 51 61 95 98 92 92 84 62 49 46
89 92 73 48 98 87 60 69 58 66 84 82 86 81 74 80 100 86 58 47 48 70 72 95 99 80 62 52 40 36 40 34 35 55 76 100 100 100 93 94 76 51 53
35 34 66 60 61 64 61 100 98 80 83 85 82 98 59 58 71 92 71 40 31 50 76 87 100 84 99 81 48 41 41 43 35 49 66 100 100 100 100 93 64 59 76
38 38 50 71 69 54 64 74 100 89 63 84 68 92 70 78 98 89 69 43 32 62 79 100 100 96 100 78 55 51 50 58 47 38 60 69 97 100 100 100 73 74 82
34 32 28 35 64 66 57 66 76 99 100 91 88 69 87 100 100 100 100 96 88 100 100 76 99 84 79 74 56 68 65 88 44 38 50 62 98 100 100 100 100 76 92
22 26 27 26 38 63 45 38 58 69 100 100 100 100 100 100 100 100 99 100 92 100 100 75 66 99 59 71 67 61 70 72 64 56 60 49 75 100 97 86 99 100 92
15 17 20 21 23 40 89 64 62 87 87 100 100 100 98 100 100 100 100 86 62 100 73 91 58 75 50 84 80 68 64 87 79 62 52 40 60 91 98 92 66 98 100
11 14 16 17 22 26 60 76 74 82 88 100 100 100 100 100 100 100 100 100 84 100 100 73 38 38 47 82 57 75 60 72 78 66 65 42 36 65 92 90 89 96 91
10 12 16 18 16 21 45 66 83 100 100 100 100 100 100 100 100 100 92 86 95 94 90 100 56 100 96 90 60 42 69 71 81 72 63 68 44 37 50 77 79 87 85
8 11 14 15 15 20 28 63 75 78 100 99 100 100 100 100 100 100 88 97 100 100 100 100 79 92 100 100 99 79 100 76 92 86 64 58 61 46 39 55 84 100 100
7 9 13 16 16 20 30 39 58 66 96 100 100 100 100 100 99 100 85 99 77 100 100 100 68 68 100 100 97 95 100 96 100 100 91 57 56 57 53 45 48 71 100
8 10 15 18 22 23 32 56 52 86 94 100 100 100 100 100 100 100 89 85 74 98 100 100 68 91 100 94 94 98 100 100 95 70 71 72 68 64 83 58 44 48 55
8 11 14 16 19 26 37 59 68 66 82 100 100 100 100 100 100 90 97 91 73 84 100 96 74 71 95 100 89 94 100 100 98 100 95 98 93 52 75 70 38 46 45
7 10 16 22 29 34 46 72 86 78 96 100 100 100 100 100 100 97 97 93 65 77 100 100 100 84 73 68 54 67 89 100 100 98 87 100 92 51 53 70 39 51 48
9 10 13 37 44 45 100 80 91 100 100 100 100 100 99 98 99 96 69 90 65 64 99 100 100 97 78 71 59 76 47 64 95 100 99 100 84 58 67 67 52 66 61
11 12 18 58 49 67 97 90 93 100 100 100 100 100 100 100 100 91 86 91 80 67 92 100 100 100 98 67 100 100 70 100 100 100 100 98 88 62 64 70 75 71 71
16 17 19 53 72 90 100 100 100 100 99 100 91 93 99 100 100 100 91 90 93 100 100 100 100 100 100 93 96 100 83 100 100 58 90 89 74 100 91 94 98 81 78
17 22 37 74 87 100 100 98 100 99 90 98 96 92 91 100 100 100 100 99 87 77 98 100 100 100 100 100 100 100 100 79 67 81 100 87 86 85 84 86 84 84 100
20 24 55 74 73 90 93 97 95 98 91 88 100 89 75 72 95 100 100 100 98 85 86 100 100 100 94 100 98 100 100 100 100 100 100 99 59 88 80 78 87 95 100
36 47 74 80 100 100 85 74 79 87 93 88 88 96 84 66 71 78 99 100 100 100 98 100 100 100 100 100 99 84 79 99 88 77 93 72 64 81 75 92 100 100 100

GFSMA_250_rhum_159.txt.gz
RH
99 100 100 97 76 54 48 40 46 45 38 39 41 84 74 44 42 46 51 52 48 39 40 45 46 48 45 46 42 39 29 47 100 100 100 100 100 100 100 100 99 100 100
75 80 80 87 79 90 76 42 44 58 46 36 34 49 81 81 70 54 47 50 51 61 52 43 50 51 44 48 48 49 43 30 45 100 100 100 100 100 98 100 100 100 100
61 57 100 100 100 100 100 74 67 51 52 48 36 50 81 96 96 96 60 49 48 46 62 60 50 61 65 48 56 54 51 35 50 86 86 100 100 100 100 100 100 100 100
59 60 64 94 100 100 100 96 95 90 66 79 63 82 100 100 100 100 65 44 59 46 48 67 67 76 89 76 67 74 64 45 34 41 84 99 100 100 100 100 100 100 100
65 56 56 62 66 74 98 92 100 91 68 65 84 76 82 99 100 100 87 74 71 94 86 86 82 74 74 83 74 82 81 64 43 36 39 54 88 92 99 100 100 100 98
56 68 62 55 62 65 72 100 67 84 84 59 70 82 100 100 100 100 100 100 73 63 69 100 98 97 80 71 75 77 98 84 53 48 42 40 39 32 32 40 48 58 66
48 42 45 52 49 59 63 75 82 75 89 84 67 81 100 100 100 100 100 100 95 90 67 100 100 100 96 88 77 74 89 93 82 49 50 41 36 33 31 38 61 75 100
65 51 41 42 43 41 61 59 52 44 90 77 97 90 100 100 100 100 100 100 100 99 62 94 94 78 69 73 86 83 68 100 100 76 49 50 44 35 33 42 58 86 100
94 84 54 40 45 55 54 49 46 41 59 90 97 100 96 100 100 100 100 99 100 100 100 95 99 87 58 91 72 75 67 73 100 96 57 51 42 35 33 39 46 73 80
52 54 68 65 44 50 46 53 53 31 32 58 92 99 94 92 100 100 100 100 100 100 100 100 100 94 63 71 76 59 39 77 100 100 71 69 52 38 34 36 36 55 79
34 30 33 39 40 41 40 37 36 36 27 28 60 100 100 91 100 100 100 100 100 100 100 100 100 75 100 67 77 54 36 58 100 100 82 64 62 39 43 39 36 42 71
20 19 19 24 28 30 28 29 28 28 26 25 28 83 100 99 100 100 100 100 100 100 100 100 100 96 100 99 89 62 58 55 99 100 100 71 55 49 44 43 49 42 53
18 17 14 13 17 19 24 23 22 22 21 24 25 29 96 100 100 100 100 100 96 100 100 100 97 100 76 76 68 83 52 56 84 100 100 81 61 52 48 47 64 55 42
14 12 13 12 11 12 14 16 16 16 17 19 22 22 55 99 94 100 100 100 99 100 100 100 100 100 100 98 76 58 53 50 76 100 100 84 64 54 58 51 51 64 60
12 13 12 13 11 8 8 11 12 12 13 15 17 21 24 82 100 100 100 100 100 100 100 100 93 87 100 93 83 66 36 49 59 99 100 90 65 61 65 64 54 68 60
8 8 8 8 8 9 8 9 10 10 11 11 14 18 22 34 71 100 100 99 100 100 100 100 100 100 100 100 99 63 52 42 47 76 100 99 67 48 76 69 80 71 60
6 6 6 6 6 6 6 8 8 9 10 11 12 15 20 27 58 87 100 100 100 100 100 100 100 100 100 100 100 76 44 39 36 71 85 91 63 45 68 77 100 93 89
6 5 5 5 6 6 6 6 7 8 10 11 12 15 17 22 51 73 98 100 100 100 100 100 100 100 100 100 100 100 58 36 43 61 65 59 53 54 65 87 77 79 100
5 5 5 5 5 5 5 6 6 7 10 12 13 14 16 19 26 63 68 100 100 100 100 100 100 99 100 99 98 92 93 48 49 54 82 55 56 48 49 53 62 62 99
4 4 5 5 5 5 5 5 6 9 11 11 12 15 16 20 21 34 40 75 100 100 100 100 100 100 99 100 74 75 82 57 47 60 83 76 68 65 68 58 65 79 89
5 4 4 4 5 5 5 6 6 7 8 10 12 16 20 23 27 41 50 86 100 100 100 100 100 100 100 99 92 76 65 68 54 46 68 81 68 74 82 84 66 48 100
5 5 4 4 4 5 6 7 6 5 8 11 13 14 18 23 29 36 62 95 100 100 100 100 100 100 100 100 100 100 70 61 42 53 58 94 100 70 93 76 78 88 68
6 6 5 5 5 6 7 8 8 8 13 18 24 22 19 22 34 43 60 81 85 84 98 100 100 100 100 100 100 98 88 74 46 46 50 58 83 97 91 67 80 100 100
7 7 6 6 6 7 9 11 10 12 14 21 26 27 24 26 41 58 74 86 86 88 90 100 100 100 100 100 99 100 93 86 86 57 48 51 63 80 100 89 85 95 95
8 8 8 7 7 9 12 14 14 15 18 22 30 37 39 36 44 48 72 92 89 91 91 100 100 100 100 100 100 97 100 100 67 82 64 58 56 56 98 100 100 95 95
12 9 10 10 9 11 15 20 18 23 34 31 34 74 83 100 81 66 67 93 98 100 100 100 100 100 100 100 100 100 98 100 100 88 69 59 74 70 81 100 100 100 100

GFSMA_250_rhum_162.txt.gz
RH
75 75 98 99 100 79 63 73 100 85 74 84 65 55 61 45 34 51 64 77 100 98 68 67 61 46 36 43 48 43 47 46 45 35 56 100 100 100 100 100 100 100 100
57 55 71 71 95 77 92 82 76 51 52 69 72 78 53 42 40 63 95 100 100 100 100 76 63 58 43 40 48 55 55 64 59 55 71 93 100 100 100 100 100 100 100
69 65 73 65 56 72 94 88 100 84 40 50 70 71 67 48 44 79 90 100 94 70 46 44 48 50 65 46 46 52 60 72 83 78 53 52 100 100 100 100 100 100 100
69 63 66 65 64 64 66 58 84 100 75 53 67 68 85 75 72 57 85 98 100 91 77 86 80 62 57 62 67 67 64 81 84 89 86 41 54 75 100 100 100 100 100
81 77 70 73 66 66 72 61 62 80 100 75 88 65 91 100 96 94 86 83 100 100 90 94 94 98 87 79 82 78 82 78 76 74 92 77 43 45 65 78 79 86 82
73 72 67 62 58 57 59 54 49 64 77 100 95 76 91 93 100 100 88 71 80 100 100 100 99 75 62 58 54 68 86 82 78 78 72 88 60 40 40 37 35 34 30
54 68 70 64 60 51 49 47 54 47 62 97 77 77 100 100 99 100 98 74 84 84 99 100 100 100 79 74 58 43 55 69 82 94 89 78 92 55 47 50 37 30 29
40 45 55 64 70 71 55 59 54 48 45 45 69 84 66 82 78 94 100 88 80 63 74 93 99 100 80 72 58 49 32 57 72 87 79 94 91 84 55 53 47 33 30
38 44 48 69 71 77 65 59 52 45 38 44 35 41 54 100 100 99 99 100 98 81 78 81 73 72 81 77 87 92 82 31 56 67 71 97 92 90 76 56 54 36 34
45 42 35 32 36 38 40 54 56 48 38 36 42 36 55 100 100 100 98 95 87 92 93 100 94 100 100 100 100 100 100 56 36 59 61 73 100 100 98 68 57 44 35
42 41 41 39 31 31 30 29 28 24 31 26 38 40 33 52 86 70 92 100 100 100 89 100 100 100 100 100 100 98 100 98 43 54 56 40 96 100 100 78 54 49 38
34 35 31 28 29 24 23 25 24 21 18 20 27 37 39 34 31 69 100 100 100 100 97 100 95 100 100 100 100 100 84 100 74 39 61 59 74 100 100 85 55 48 47
19 14 13 14 14 13 11 9 9 14 15 14 18 26 32 30 32 55 100 100 100 100 99 94 75 93 100 100 100 100 100 100 95 30 48 73 90 96 100 94 59 49 45
12 12 13 11 10 9 8 8 7 7 9 10 14 18 24 26 30 43 100 100 100 99 100 100 100 95 100 100 95 100 100 100 86 46 26 58 81 92 100 100 70 62 48
8 8 8 9 11 10 9 7 7 6 6 8 9 13 15 21 26 29 84 100 100 95 100 100 100 91 100 100 100 100 100 100 88 76 34 32 52 82 98 100 78 70 52
11 9 10 9 8 7 6 6 6 5 5 6 8 10 13 15 21 27 28 60 100 100 100 100 100 79 100 100 94 100 100 100 100 100 75 31 39 67 75 100 85 71 66
8 8 8 7 7 7 6 6 5 5 4 5 6 7 9 14 18 22 24 28 80 88 95 100 99 100 100 100 100 100 100 100 100 100 84 24 31 44 61 77 85 80 67
8 7 6 6 6 6 6 5 5 4 4 5 6 7 7 10 16 18 22 26 31 88 100 100 100 70 73 100 96 90 73 100 100 100 100 46 27 37 62 56 75 75 70
7 6 5 5 5 5 5 5 5 4 5 5 5 6 8 9 11 14 20 22 28 41 100 100 100 100 74 100 99 86 100 100 100 100 99 93 45 36 46 44 54 75 74
6 5 5 4 4 4 4 5 5 4 4 5 5 6 8 10 9 12 16 18 24 32 100 100 100 95 97 89 92 85 92 93 100 100 92 80 75 72 38 43 39 63 58
6 6 5 5 4 4 4 4 4 5 5 5 6 8 9 11 10 12 14 16 20 27 48 100 100 100 90 98 97 80 79 100 100 96 87 100 97 98 75 47 35 43 58
6 6 6 6 5 5 4 4 4 5 5 6 6 7 7 9 11 13 16 16 19 26 30 33 100 100 100 100 100 92 100 100 100 100 92 100 100 93 83 59 39 37 53
7 6 7 6 5 5 5 4 4 5 6 6 6 6 8 9 11 11 15 16 18 24 28 30 36 96 100 100 100 100 100 100 100 100 100 100 100 100 95 64 46 40 41
8 7 7 6 6 6 5 5 5 5 6 8 8 10 11 11 11 13 15 16 18 24 27 33 34 75 100 100 100 100 100 100 100 100 100 100 100 99 91 62 46 49 46
8 8 7 7 6 6 6 6 6 7 8 11 13 12 10 12 19 18 18 17 19 19 25 50 41 55 71 100 100 100 100 100 100 100 100 100 97 91 95 70 58 48 46
9 8 7 7 7 7 7 8 9 9 10 14 14 12 13 20 20 27 20 14 26 46 96 50 50 56 76 100 100 100 100 100 100 100 100 100 100 90 88 86 70 57 47

GFSMA_250_rhum_165.txt.gz
RH
45 53 55 58 75 82 88 84 86 100 97 77 80 84 56 43 56 78 62 59 55 100 100 100 90 79 63 54 50 38 39 44 41 49 33 25 42 100 100 100 99 100 100
55 59 65 66 69 78 80 94 100 100 100 83 66 49 49 44 36 53 64 62 82 83 100 95 80 72 67 66 55 49 39 40 46 54 56 45 37 48 90 100 100 100 100
60 64 70 70 70 68 64 75 68 56 80 89 84 52 48 53 50 38 71 86 91 82 100 88 60 43 45 76 74 67 53 41 43 53 58 71 60 76 86 100 100 100 100
53 56 62 80 91 86 77 66 63 60 54 58 81 71 48 68 84 67 50 100 92 82 100 100 90 65 66 69 74 63 57 61 63 72 70 67 68 65 47 94 100 100 100
40 47 48 49 55 61 64 69 64 66 77 67 66 64 76 75 100 80 68 99 100 93 97 98 100 100 100 85 76 76 81 91 80 79 78 73 86 79 67 40 46 77 94
40 40 42 43 42 38 37 34 32 34 41 51 58 66 59 66 100 98 94 90 100 100 93 83 100 100 100 80 60 53 53 54 57 64 85 80 73 88 95 68 37 40 41
48 46 50 49 44 45 48 42 38 38 34 31 30 50 63 75 60 95 100 100 100 100 91 82 76 67 100 88 68 56 53 38 34 36 48 74 85 73 84 100 67 42 44
50 52 51 50 55 60 55 53 58 50 47 43 32 27 34 49 51 100 100 100 100 100 88 95 74 71 78 92 79 65 61 35 37 41 38 52 82 85 72 93 98 75 50
58 60 57 54 58 66 68 64 52 43 48 47 43 32 28 26 52 100 100 100 100 100 100 100 82 47 65 87 88 71 64 49 33 64 71 38 46 79 84 78 99 99 70
53 54 54 50 46 44 49 54 58 55 44 42 48 38 33 29 29 98 95 100 100 100 99 100 98 59 56 100 95 70 49 68 83 62 99 67 53 42 76 87 93 100 88
60 52 46 38 36 31 31 36 43 47 45 40 40 39 30 33 32 47 99 100 100 100 99 100 100 100 95 76 100 100 100 100 100 96 84 80 65 54 43 81 90 100 95
40 37 27 22 19 21 25 23 26 29 33 31 32 36 34 24 28 26 22 46 74 100 100 95 100 100 100 91 100 100 100 100 100 100 100 100 86 73 42 50 92 100 100
30 28 20 14 12 10 8 8 8 10 12 11 16 22 25 24 18 24 20 23 39 95 85 98 100 100 100 100 100 100 100 100 100 100 100 100 86 83 56 53 100 100 100
12 11 10 9 8 8 6 6 7 7 9 9 7 8 11 12 15 17 21 20 29 85 93 100 100 100 100 100 100 98 100 100 100 100 100 100 100 97 86 49 66 94 100
11 14 14 13 11 11 9 8 7 6 5 6 6 6 8 9 9 13 16 20 24 76 86 100 100 100 100 100 75 80 100 100 100 100 100 100 97 100 70 46 52 62 97
18 16 12 10 8 8 8 8 8 8 6 5 5 6 6 8 8 8 12 16 22 52 85 93 100 100 100 100 89 100 100 58 98 96 100 100 91 100 79 48 39 40 60
16 12 10 9 9 9 8 7 7 7 6 6 5 5 6 6 8 7 9 13 19 26 43 41 100 100 100 94 100 100 92 64 100 100 80 60 65 100 84 61 55 41 46
15 14 13 10 8 6 6 6 6 6 6 6 5 5 6 6 7 7 7 12 16 23 28 59 100 100 100 100 100 100 100 100 100 84 54 74 99 100 92 56 58 52 49
18 17 12 8 7 6 5 4 4 5 5 5 5 5 5 5 6 7 7 10 14 21 30 68 100 100 100 91 100 100 100 100 100 94 63 100 100 88 88 100 71 48 52
22 17 10 8 6 5 5 5 4 4 4 4 5 5 5 5 5 6 6 9 13 20 27 56 73 98 100 98 100 100 100 100 100 100 62 100 100 100 100 100 100 55 53
26 18 11 8 6 6 5 5 4 4 4 4 4 5 4 5 5 6 7 9 12 19 21 32 45 69 98 96 100 100 100 100 100 82 77 74 100 100 98 92 74 86 89
24 20 14 9 7 6 6 5 5 5 4 4 4 4 5 5 5 6 8 8 11 14 20 36 45 39 39 46 96 100 100 100 100 100 100 100 100 100 77 100 100 90 87
20 18 16 10 8 6 6 6 6 5 4 4 4 4 5 5 5 6 8 8 10 14 18 24 26 31 35 36 46 100 100 100 100 100 99 97 86 77 77 95 90 73 72
15 13 15 11 9 7 6 6 6 6 5 4 4 5 5 6 6 7 7 8 11 57 50 30 26 25 29 32 30 68 100 100 100 100 100 76 60 70 58 60 66 74 77
10 9 11 11 8 7 6 6 6 7 5 5 5 5 6 6 7 8 8 8 13 28 38 26 25 26 27 27 28 30 52 100 100 100 100 100 100 81 93 78 74 75 81
7 8 8 10 8 7 6 6 7 6 6 5 6 6 7 8 8 9 11 12 11 12 15 18 18 20 20 22 24 27 32 67 100 100 100 95 100 100 100 93 84 81 85

GFSMA_250_rhum_171.txt.gz
RH
54 55 55 56 58 58 60 58 55 54 50 48 60 55 60 94 100 99 100 100 95 72 53 55 53 66 71 100 94 66 71 68 63 38 34 37 35 26 24 47 95 100 100
37 36 38 41 44 46 49 52 50 49 52 51 50 52 53 54 73 99 100 100 100 94 69 55 51 66 75 100 84 61 46 63 72 49 42 36 43 34 25 25 55 100 100
35 34 35 35 34 32 33 36 43 48 48 45 44 45 51 55 66 58 70 89 96 100 100 90 58 78 85 100 70 60 45 38 61 60 49 42 44 42 31 26 25 86 100
36 34 35 34 34 35 34 36 33 33 37 43 46 45 48 57 55 64 76 69 81 96 100 100 99 65 92 100 91 49 38 31 30 44 46 47 43 40 41 36 31 26 56
40 36 36 36 36 36 33 34 34 33 33 32 34 36 36 39 48 57 60 66 62 68 99 96 100 90 84 100 100 84 49 40 30 36 53 51 49 44 40 44 41 35 30
44 44 40 37 35 32 31 30 31 30 30 29 28 28 32 34 36 35 37 39 50 50 64 94 99 100 80 96 100 99 67 45 32 34 46 53 50 50 49 50 50 47 38
54 46 45 41 36 31 30 30 27 28 28 26 28 28 26 26 28 34 30 31 34 39 54 52 75 100 100 96 100 100 84 65 42 38 55 56 53 58 56 54 61 65 58
48 44 39 35 33 31 29 28 29 28 28 27 22 24 28 28 23 26 30 32 34 29 32 41 57 85 100 100 100 100 100 98 67 56 60 60 49 46 43 48 56 65 70
43 38 34 31 29 27 26 26 26 26 25 23 20 17 19 23 27 26 24 27 33 33 28 24 44 74 96 100 100 100 100 100 98 64 73 69 52 32 38 49 51 57 70
38 36 33 30 29 29 30 27 24 22 19 20 22 20 14 15 21 24 30 25 25 30 28 21 23 43 82 95 100 100 100 100 100 76 58 78 68 34 30 28 36 30 29
36 31 29 26 26 27 28 28 27 25 23 22 21 24 23 17 17 19 27 32 24 25 25 24 22 25 59 86 100 93 84 100 100 100 78 73 70 65 39 34 31 46 56
38 34 30 26 25 26 26 24 23 20 18 16 16 18 18 19 16 12 14 27 30 24 23 24 24 25 37 68 100 100 100 100 100 100 100 100 90 74 50 35 61 70 76
45 38 35 33 30 28 24 20 16 15 16 13 11 9 7 8 8 9 9 10 20 38 27 21 22 24 29 68 100 100 100 100 100 100 100 100 100 89 49 42 70 87 100
45 45 42 36 32 27 18 14 13 12 11 10 10 9 6 6 7 6 6 6 7 14 31 29 22 23 28 62 91 100 100 100 100 100 100 100 99 93 78 68 96 100 100
48 42 35 31 22 17 14 12 11 12 13 12 10 10 8 8 7 7 7 5 4 5 11 27 21 21 26 42 94 100 100 100 100 100 100 100 98 95 65 77 93 96 100
46 35 30 17 14 13 14 15 15 17 17 15 11 10 8 8 7 8 7 5 5 5 6 10 18 17 21 27 70 99 100 100 100 100 100 100 100 99 100 100 90 97 100
33 25 16 13 14 15 16 18 18 16 16 16 14 11 8 9 7 7 7 6 5 4 6 9 11 13 14 25 34 78 100 100 98 100 96 100 100 100 99 99 55 91 100
25 16 15 17 17 18 17 15 14 13 14 16 14 11 11 9 6 6 6 6 5 5 6 10 9 10 12 16 28 77 100 100 100 100 100 100 100 100 100 100 83 100 88
17 18 18 18 17 14 14 13 13 13 12 14 16 13 13 8 6 4 4 4 5 5 5 8 10 8 7 13 28 64 99 100 95 97 98 100 100 93 100 72 63 100 100
21 22 20 17 16 15 13 11 9 8 8 10 12 14 12 9 5 4 4 4 4 5 5 6 11 9 8 7 22 39 82 100 100 100 100 100 100 96 100 90 70 98 100
24 21 19 18 14 10 8 7 6 5 5 6 8 11 10 8 5 4 4 4 4 4 4 5 8 11 8 6 14 29 72 95 100 99 100 100 100 100 100 100 60 63 100
22 24 18 12 8 7 8 7 6 5 4 4 6 7 7 8 5 4 4 4 4 4 4 5 6 11 8 6 7 23 52 76 93 87 100 100 100 100 93 88 100 99 100
26 18 14 10 9 9 7 7 7 5 4 4 5 6 6 6 5 4 4 4 4 4 4 4 6 8 9 6 6 14 28 55 77 79 100 100 77 100 100 100 66 87 100
19 14 10 12 13 11 10 9 8 7 5 4 4 6 6 6 4 4 4 4 4 4 4 4 5 7 9 5 6 8 21 46 78 81 94 100 77 100 100 100 85 42 63
16 11 11 13 14 14 12 11 10 9 7 5 4 5 6 6 4 4 5 4 4 4 4 5 5 6 8 5 6 7 14 34 66 90 85 100 96 100 100 100 100 79 85
13 10 12 14 14 14 12 11 10 10 8 6 4 5 6 5 5 4 5 4 4 4 4 5 5 6 6 6 7 8 9 21 65 91 89 85 100 98 100 100 100 85 72